Regional Weather Roundup
Issued by NWS Albany, NY

Home | Current Version | Previous Version | Text Only | Print | Product List | Glossary On
Versions: 1 2 3 4 5 6 7 8 9 10 11 12 13 14 15 16 17 18 19 20 21 22 23 24 25 26 27 28 29 30 31 32 33 34 35 36 37 38 39 40 41 42 43 44 45 46 47 48 49 50
000
ASUS41 KALY 222010
RWRALY

NEW YORK STATE HOURLY WEATHER ROUNDUP
NATIONAL WEATHER SERVICE ALBANY NY
300 PM EST SUN JAN 22 2017

NOTE: "FAIR" INDICATES FEW OR NO CLOUDS BELOW 12,000 FEET WITH NO
SIGNIFICANT WEATHER AND/OR NO OBSTRUCTIONS TO VISIBILITY.

NYZ032-033-038>043-046>054-057>066-NYZ062>081-082-084-222100-
EAST


CITY           SKY/WX    TMP DP  RH WIND       PRES   REMARKS
ALBANY         CLOUDY    43  38  82 NE6       29.77R
GLENS FALLS    CLOUDY    40  36  86 N7        29.79S
POUGHKEEPSIE   CLOUDY    49  44  83 CALM      29.70F
NEWBURGH       CLOUDY    48  45  87 CALM      29.71F
MONTGOMERY     CLOUDY    49  45  86 CALM      29.68S FOG
WHITE PLAINS   PTSUNNY   51  44  77 MISG      29.69R
ISLIP          CLOUDY    53  46  77 NE9       29.70R
NEW YORK CITY  CLOUDY    46  41  82 NE15G23   29.70R
CENTRAL PARK   CLOUDY    46  42  86 E12G17    29.71S
$$

NYZ005>009-017-018-044>046-055-056-222100-
CENTRAL


CITY           SKY/WX    TMP DP  RH WIND       PRES   REMARKS
FULTON         CLOUDY    47  41  80 N8        29.69S
SYRACUSE       PTSUNNY   50  44  80 NE8       29.68S
ROME           PTSUNNY   49  43  80 E10       29.72R
ELMIRA         CLOUDY    58  47  66 E5        29.63S
BINGHAMTON     SUNNY     54  46  74 E3        29.64F
MONTICELLO     MOSUNNY   54  48  82 SE9       29.68S
$$

NYZ026>034-041>043-087-222100-
NORTH


CITY           SKY/WX    TMP DP  RH WIND       PRES   REMARKS
WATERTOWN      CLOUDY    39  35  86 NE16      29.75S WCI  30
FORT DRUM      NOT AVBL
OGDENSBURG     CLOUDY    38  31  78 NE15G22   29.83R WCI  29
MASSENA        CLOUDY    36  28  73 NE14      29.88R WCI  27
SARANAC LAKE   CLOUDY    32  30  92 NE9       29.76R WCI  24
PLATTSBURGH    CLOUDY    36  29  75 N13       29.87R WCI  27
$$

NYZ001>004-010>016-019>021-085-222100-
WEST


CITY           SKY/WX    TMP DP  RH WIND       PRES   REMARKS
NIAGARA FALLS  FOG       45  42  89 NE14      29.65F VSB 1/2
BUFFALO        LGT RAIN  44  42  93 NE14      29.64F FOG
DUNKIRK        CLOUDY    42  42 100 N6        29.63F FOG
JAMESTOWN        N/A     52  45  76 E7        29.61F
WELLSVILLE     CLOUDY    58  48  69 NE6       29.64S
ROCHESTER      FOG       41  41 100 NE10      29.70R VSB 1/4
PENN YAN       MOSUNNY   53  44  71 VRB5      29.67R
$$

             KEY
       WCI = WIND CHILL INDEX
       VSB = VISIBILITY
       HX  = HEAT INDEX
$$



USA.gov is the U.S. government's official web portal to all federal, state and local government web resources and services.